Terug naar catalogus

STARLINK-38228

ActiefCommunicatieSSO
NORAD 100192·PAYLOAD·🇺🇸 United States

Gelanceerd Aug 1, 2026 vanaf Vandenberg Space Force Base

Loading…

Volgende Passages (komende 24 uur)

TLE

VersSource: Space-Track

Epoch: Sep 14, 2026, 22:20 UTC

1 A0192U 26175P   26257.93078400  .00225713  00000-0  14652-2 0  9996
2 A0192  97.2839 100.1568 0002368  83.5716 276.5819 15.75334680  8303

Volg STARLINK-38228 in realtime met AllMySat

Download on the App Store